Regional Weather Roundup
Issued by NWS

Home | Current Version | Previous Version | Text Only | Print | Product List | Glossary On
Versions: 1 2 3 4 5 6 7 8 9 10 11 12 13 14 15 16 17 18 19 20 21 22 23 24 25 26 27 28 29 30 31 32 33 34 35 36 37 38 39 40 41 42 43 44 45 46 47 48 49 50
000
ASUS43 KFSD 222210
RWRSD

WEATHER ROUNDUP FOR SOUTH DAKOTA
NATIONAL WEATHER SERVICE SIOUX FALLS SD
500 PM CDT WED OCT 22 2014

NOTE: "FAIR" INDICATES FEW OR NO CLOUDS BELOW 12,000 FEET WITH NO
SIGNIFICANT WEATHER AND/OR OBSTRUCTIONS TO VISIBILITY.


SDZ001>005-009-010-012>017-222300-
NORTHWEST AND NORTH CENTRAL SOUTH DAKOTA

CITY           SKY/WX    TMP DP  RH WIND       PRES   REMARKS
BUFFALO          N/A     62  27  26 W24G32    29.89S
FAITH            N/A     64  32  30 W16       29.94S
MOBRIDGE       MOSUNNY   67  42  40 W6        29.88S
$$

SDZ012>016-024>037-041>051-057-063-072>074-222300-
SOUTHWEST AND SOUTH CENTRAL SOUTH DAKOTA

CITY           SKY/WX    TMP DP  RH WIND       PRES   REMARKS
RAPID CTY ARPT SUNNY     64  35  34 SE7       29.99S
PIERRE         SUNNY     64  41  42 W6        29.93S
CUSTER         SUNNY     54  24  31 W12       30.05R
ELLSWORTH AFB  MOSUNNY   64  32  30 E6        29.98S
PHILIP         SUNNY     67  32  27 NW15      29.96S
PINE RIDGE     SUNNY     63  31  30 W10       30.02S
SPEARFISH      FAIR      59  28  31 W13       30.01R
WINNER         FAIR      64  45  49 VRB5      29.97F
$$

SDZ004>011-016>023-039-040-222300-
NORTHEAST SOUTH DAKOTA

CITY           SKY/WX    TMP DP  RH WIND       PRES   REMARKS
ABERDEEN       CLOUDY    57  53  86 W10       29.91R
WATERTOWN      CLOUDY    55  53  93 S3        29.91S
SISSETON         N/A     57  55  93 S3        29.87F
$$

SDZ017-020-022-023-036>040-048>070-222300-
SOUTHEAST SOUTH DAKOTA

CITY           SKY/WX    TMP DP  RH WIND       PRES   REMARKS
SIOUX FALLS    RAIN      58  56  93 S5        29.95R FOG
HURON          CLOUDY    57  53  86 W8        29.94S
CHAMBERLAIN    PTSUNNY   59  50  72 SW3       29.96F
MITCHELL       CLOUDY    58  55  90 W10       29.96R
YANKTON        CLOUDY    57  55  94 CALM      29.98R
$$

ABBREVIATIONS USED IN REMARKS
   TC - TEMPERATURE IN CELSIUS
  WCI - WIND CHILL INDEX
   HX - HEAT INDEX
  VSB - VISIBILITY




USA.gov is the U.S. government's official web portal to all federal, state and local government web resources and services.